• Join FlightAware (Why Join?)
  • Login
  • US Flag 
08:09AM EST


 

Airport Tracker/Info


-or-


 

Live Flight TrackerFlight Track Log ✈ AAY804 ✈ 01-May-2014 ✈ KPIE - KCHA

Flight Track Log - Related Links

Times and Time Zones

All times are in EDT time to prevent confusion due to time zone crossing. See the AAY804 flight status page for this flight to view local times or setup timezone preferences in your user account.

Time Position Orientation Groundspeed Altitude Reporting Facility
EDT Latitude Longitude Course Direction KTS MPH feet Rate Location/Type
06:58AM 27.9000 -82.6833 180° South 151 174 800  Level Tampa TRACON
06:58AM 27.8667 -82.6833 180° South 150 173 2,000 2,250 Climbing Tampa TRACON
06:59AM 27.8167 -82.6833 180° South 220 253 4,400 2,700 Climbing Tampa TRACON
07:00AM 27.8167 -82.7333 270° West 252 290 7,400 2,364 Climbing Tampa TRACON
07:02AM 27.9517 -82.7586 351° North 295 339 10,900 2,109 Climbing Jacksonville Center
07:03AM 28.0517 -82.7656 356° North 321 369 13,200 2,500 Climbing Jacksonville Center
07:04AM 28.1561 -82.7725 357° North 357 411 15,900 2,300 Climbing Jacksonville Center
07:05AM 28.2625 -82.7747 359° North 375 432 17,800 1,750 Climbing Jacksonville Center
07:06AM 28.3586 -82.7794 358° North 380 437 19,400 1,700 Climbing Jacksonville Center
07:07AM 28.4733 -82.7839 358° North 393 452 21,200 1,800 Climbing Jacksonville Center
07:08AM 28.5944 -82.7886 358° North 410 472 23,000 1,650 Climbing Jacksonville Center
07:09AM 28.7092 -82.8286 343° North 415 478 24,500 1,550 Climbing Jacksonville Center
07:10AM 28.8261 -82.8761 340° North 428 493 26,100 1,550 Climbing Jacksonville Center
07:11AM 28.9408 -82.9211 341° North 439 505 27,600 1,250 Climbing Jacksonville Center
07:12AM 29.0578 -82.9686 340° North 439 505 28,600 1,000 Climbing Jacksonville Center
07:13AM 29.1789 -83.0139 342° North 444 511 29,600 1,050 Climbing Jacksonville Center
07:14AM 29.2997 -83.0639 340° North 451 519 30,700 1,150 Climbing Jacksonville Center
07:15AM 29.4228 -83.1119 341° North 456 525 31,900 1,350 Climbing Jacksonville Center
07:16AM 29.5606 -83.1672 341° North 470 541 33,400 1,300 Climbing Jacksonville Center
07:17AM 29.6772 -83.2128 341° North 461 531 34,500 1,250 Climbing Jacksonville Center
07:18AM 29.8003 -83.2636 340° North 461 531 35,900 750 Climbing Jacksonville Center
07:19AM 29.9172 -83.3072 342° North 454 522 36,000 100 Climbing Jacksonville Center
07:20AM 30.0339 -83.3533 341° North 444 511 36,100 650 Climbing Jacksonville Center
07:21AM 30.1550 -83.3897 345° North 444 511 37,300 950 Climbing Jacksonville Center
07:22AM 30.2758 -83.4242 346° North 439 505 38,000 350 Climbing Jacksonville Center
07:23AM 30.3947 -83.4561 347° North 434 499 38,000  Level Jacksonville Center
07:24AM 30.5178 -83.4931 345° North 434 499 38,000  Level Jacksonville Center
07:25AM 30.6386 -83.5300 345° North 439 505 38,000 50 Level Jacksonville Center
07:26AM 30.7639 -83.5647 347° North 444 511 38,100 50 Climbing Jacksonville Center
07:27AM 30.8700 -83.5994 344° North 444 511 38,100 -50 Level Jacksonville Center
07:28AM 30.9911 -83.6317 347° North 444 511 38,000 -50 Descending Jacksonville Center
07:29AM 31.1119 -83.6692 345° North 444 511 38,000  Level Jacksonville Center
07:30AM 31.2286 -83.7039 346° North 439 505 38,000 36 Level Jacksonville Center
07:32AM 31.4394 -83.7686 345° North 433 498 38,100  Climbing Atlanta Center
07:33AM 31.5544 -83.8072 344° North 428 493 38,000 -50 Descending Atlanta Center
07:34AM 31.6900 -83.8461 346° North 433 498 38,000  Level Atlanta Center
07:35AM 31.8133 -83.8800 347° North 438 504 38,000 50 Level Atlanta Center
07:36AM 31.9322 -83.9142 346° North 438 504 38,100 50 Climbing Atlanta Center
07:37AM 32.0533 -83.9506 346° North 438 504 38,100  Level Atlanta Center
07:38AM 32.1744 -83.9897 345° North 438 504 38,100 -400 Level Atlanta Center
07:39AM 32.2933 -84.0242 346° North 443 510 37,300 -900 Descending Atlanta Center
07:40AM 32.4125 -84.0611 345° North 443 510 36,300 -1,000 Descending Atlanta Center
07:41AM 32.5336 -84.0956 347° North 438 504 35,300 -750 Descending Atlanta Center
07:42AM 32.6567 -84.1350 345° North 438 504 34,800 -750 Descending Atlanta Center
07:43AM 32.7778 -84.1747 345° North 443 510 33,800 -1,050 Descending Atlanta Center
07:44AM 32.9008 -84.2169 344° North 448 516 32,700 -1,050 Descending Atlanta Center
07:45AM 33.0217 -84.2519 346° North 448 516 31,700 -1,000 Descending Atlanta Center
07:46AM 33.1428 -84.2919 345° North 448 516 30,700 -1,000 Descending Atlanta Center
07:47AM 33.2658 -84.3269 347° North 448 516 29,700 -950 Descending Atlanta Center
07:48AM 33.3742 -84.3622 345° North 453 521 28,800 -950 Descending Atlanta Center
07:49AM 33.4972 -84.3975 347° North 453 521 27,800 -1,000 Descending Atlanta Center
07:50AM 33.6267 -84.4381 345° North 436 502 26,800 -950 Descending Atlanta Center
07:51AM 33.7369 -84.4933 337° Northwest 425 489 25,900 -900 Descending Atlanta Center
07:52AM 33.8286 -84.5464 334° Northwest 420 483 25,000 -950 Descending Atlanta Center
07:53AM 33.9308 -84.5997 337° Northwest 415 478 24,000 -1,950 Descending Atlanta Center
07:54AM 34.0347 -84.6556 336° Northwest 410 472 21,100 -2,750 Descending Atlanta Center
07:55AM 34.1492 -84.7167 336° Northwest 410 472 18,500 -2,350 Descending Atlanta Center
07:56AM 34.2431 -84.7675 336° Northwest 382 440 16,400 -1,500 Descending Atlanta Center
07:57AM 34.3261 -84.8111 337° Northwest 371 427 15,500 -1,800 Descending Atlanta Center
07:58AM 34.4178 -84.8622 335° Northwest 358 412 12,800 -2,250 Descending Atlanta Center
07:59AM 34.5028 -84.9108 335° Northwest 351 404 11,000 -900 Descending Atlanta Center
08:00AM 34.5839 -84.9572 335° Northwest 337 388 11,000 -250 Level Atlanta Center
08:01AM 34.6672 -85.0011 337° Northwest 325 374 10,500 -1,050 Descending Atlanta Center
08:02AM 34.7419 -85.0422 336° Northwest 309 356 8,900 -2,000 Descending Atlanta Center
08:03AM 34.8125 -85.0836 334° Northwest 291 335 6,500 -1,450 Descending Atlanta Center
08:04AM 34.8894 -85.1075 346° North 281 323 6,000 -750 Descending Atlanta Center
08:05AM 34.9625 -85.1186 353° North 276 318 5,000 -850 Descending Atlanta Center
08:06AM 35.0228 -85.1217 358° North 248 285 4,300 -900 Descending Atlanta Center
08:07AM 35.0733 -85.0994 20° North 199 229 3,200 -650 Descending Atlanta Center
08:08AM 35.1192 -85.1053 354° North 183 211 3,000 -200 Descending Atlanta Center
08:10AM 35.0333 -85.2000 225° Southwest  Level FlightAware Approximate